Date String (YYYY-MM-DD hh:mm:ss) UTC,Instrument flags,absolute air pressure of the measurement (hPa),sample flow rate (lpm),inlet stack bypass flow (lpm),air temperature of the measurement (°C),ambient temperature measured by the external sensor (°C),aerosol sample conditioner tube jacket temperature (°C),OPC LED temperature (°C),internal box temperature (°C),relative humidity of the measurement (%),span deviation,mass concentration of particles derived from Lorenz-Mie calculation of OPC scattering (μg/m³),mass concentration of particles derived from Lorenz-Mie calculation of OPC scattering (μg/m³),mass concentration of particles derived from Lorenz-Mie calculation of OPC scattering (μg/m³)
DateTimeUTC,F1_M11,P_M11,Q1_M11,Q2_M11,T1_M11,T2_M11,T3_M11,T4_M11,T5_M11,U1_M11,ZSPAN_M11,X0_M11,X2_M11,X1_M11
2024-02-07 20:00:00,SystemResetWarning,0810.1,5.00,000.00,019.6,019.0,000.0,027.9,021.3,22.4,0002.5,0015.99,0008.01,0007.31
2024-02-07 20:01:00,SystemResetWarning,0810.1,4.99,000.00,019.6,019.0,000.0,027.9,021.3,22.4,0002.3,0016.02,0008.09,0007.38
2024-02-07 20:02:00,SystemResetWarning,0810.1,4.99,000.00,019.6,019.0,000.0,027.9,021.3,22.6,0001.9,0016.18,0008.10,0007.42
2024-02-07 20:03:00,SystemResetWarning,0810.1,5.01,000.00,019.6,019.0,000.0,027.9,021.3,22.4,0001.6,0016.26,0008.14,0007.46
2024-02-07 20:04:00,SystemResetWarning,0810.1,5.01,000.00,019.6,019.0,000.0,027.9,021.3,22.2,0001.6,0016.25,0008.21,0007.51
2024-02-07 20:05:00,SystemResetWarning,0810.1,4.99,000.00,019.6,019.0,000.0,027.9,021.3,22.3,0001.6,0016.16,0008.25,0007.54
2024-02-07 20:06:00,SystemResetWarning,0810.1,4.99,000.00,019.6,019.0,000.0,027.9,021.3,22.7,0001.8,0016.59,0008.32,0007.59
2024-02-07 20:07:00,SystemResetWarning,0810.0,5.00,000.00,019.6,019.0,000.0,027.9,021.3,22.4,0001.8,0016.68,0008.35,0007.63
2024-02-07 20:08:00,SystemResetWarning,0809.8,5.00,000.00,019.6,019.0,000.0,027.9,021.3,22.2,0001.6,0016.50,0008.44,0007.68
2024-02-07 20:09:00,SystemResetWarning,0809.8,5.00,000.00,019.6,019.0,000.0,028.0,021.3,20.4,0001.5,0016.14,0008.49,0007.71
2024-02-07 20:10:00,SystemResetWarning,0809.8,5.00,000.00,019.6,019.0,000.0,028.0,021.3,20.1,0001.7,0016.11,0008.44,0007.69
2024-02-07 20:11:00,SystemResetWarning,0809.8,5.00,000.00,019.6,019.1,000.0,028.0,021.3,21.3,0002.3,0016.41,0008.34,0007.62
2024-02-07 20:12:00,SystemResetWarning,0809.7,5.01,000.00,019.7,019.1,000.0,028.0,021.3,21.3,0002.4,0015.97,0008.21,0007.52
2024-02-07 20:13:00,SystemResetWarning,0809.7,5.00,000.00,019.7,019.1,000.0,028.0,021.3,20.9,0002.6,0015.32,0008.00,0007.33
2024-02-07 20:14:00,SystemResetWarning,0809.6,5.01,000.00,019.7,019.1,000.0,028.0,021.3,20.6,0002.7,0014.59,0007.83,0007.15
2024-02-07 20:15:00,SystemResetWarning,0809.6,5.00,000.00,019.7,019.1,000.0,028.0,021.4,20.2,0002.6,0014.81,0007.74,0007.04
2024-02-07 20:16:00,SystemResetWarning,0809.6,5.00,000.00,019.7,019.2,000.0,028.0,021.4,19.9,0002.8,0014.71,0007.63,0006.95
2024-02-07 20:17:00,SystemResetWarning,0809.5,4.99,000.00,019.7,019.2,000.0,028.0,021.4,19.2,0002.9,0014.11,0007.45,0006.82
2024-02-07 20:18:00,SystemResetWarning,0809.5,5.00,000.00,019.7,019.2,000.0,028.0,021.4,18.8,0003.1,0013.73,0007.28,0006.64
2024-02-07 20:19:00,SystemResetWarning,0809.5,5.00,000.00,019.7,019.2,000.0,028.0,021.4,19.2,0003.8,0014.24,0007.03,0006.40
2024-02-07 20:20:00,SystemResetWarning,0809.6,5.00,000.00,019.7,019.2,000.0,028.0,021.4,20.8,0004.4,0014.48,0006.74,0006.12
2024-02-07 20:21:00,SystemResetWarning,0809.5,5.01,000.00,019.7,019.2,000.0,028.0,021.4,20.2,0004.0,0014.14,0006.45,0005.85
2024-02-07 20:22:00,SystemResetWarning,0809.5,5.00,000.00,019.7,019.2,000.0,028.0,021.4,20.7,0003.7,0013.19,0006.21,0005.63
2024-02-07 20:23:00,SystemResetWarning,0809.4,5.00,000.00,019.7,019.2,000.0,028.0,021.4,21.2,0003.5,0012.73,0006.09,0005.50
2024-02-07 20:24:00,SystemResetWarning,0809.4,5.00,000.00,019.7,019.1,000.0,028.0,021.4,20.9,0002.9,0013.02,0006.12,0005.51
2024-02-07 20:25:00,SystemResetWarning,0809.3,5.00,000.00,019.7,019.1,000.0,028.0,021.4,20.7,0000.7,0013.30,0006.13,0005.53
2024-02-07 20:26:00,SystemResetWarning,0809.3,5.00,000.00,019.7,019.1,000.0,028.0,021.4,20.7,0001.8,0012.91,0006.06,0005.50
2024-02-07 20:27:00,SystemResetWarning,0809.3,4.99,000.00,019.7,019.1,000.0,028.0,021.4,20.6,0003.6,0012.22,0006.06,0005.51
2024-02-07 20:28:00,SystemResetWarning,0809.2,4.99,000.00,019.7,019.1,000.0,028.1,021.4,20.1,0003.5,0011.69,0006.07,0005.52
2024-02-07 20:29:00,SystemResetWarning,0809.2,5.01,000.00,019.7,019.1,000.0,028.1,021.4,20.1,0003.2,0011.96,0006.10,0005.55
2024-02-07 20:30:00,SystemResetWarning,0809.3,5.01,000.00,019.7,019.1,000.0,028.1,021.4,20.4,0002.7,0011.87,0006.16,0005.62
2024-02-07 20:31:00,SystemResetWarning,0809.2,4.99,000.00,019.7,019.1,000.0,028.1,021.4,20.8,0002.6,0011.64,0006.23,0005.70
2024-02-07 20:32:00,SystemResetWarning,0809.3,5.00,000.00,019.7,019.1,000.0,028.1,021.4,21.2,0002.9,0012.75,0006.33,0005.80
2024-02-07 20:33:00,SystemResetWarning,0809.2,5.00,000.00,019.7,019.1,000.0,028.1,021.5,21.6,0003.2,0013.74,0006.46,0005.92
2024-02-07 20:34:00,SystemResetWarning,0809.2,5.00,000.00,019.7,019.1,000.0,028.1,021.5,20.5,0003.1,0014.12,0006.53,0006.01
2024-02-07 20:35:00,SystemResetWarning,0809.1,4.99,000.00,019.7,019.1,000.0,028.1,021.5,20.3,0003.0,0013.88,0006.54,0006.06
2024-02-07 20:36:00,SystemResetWarning,0809.2,4.99,000.00,019.7,019.2,000.0,028.1,021.4,20.5,0002.7,0013.47,0006.60,0006.12
2024-02-07 20:37:00,SystemResetWarning,0809.2,5.00,000.00,019.7,019.1,000.0,028.1,021.4,20.6,0002.7,0013.41,0006.62,0006.17
2024-02-07 20:38:00,SystemResetWarning,0809.2,5.00,000.00,019.7,019.2,000.0,028.1,021.4,20.1,0002.9,0013.41,0006.65,0006.20
2024-02-07 20:39:00,SystemResetWarning,0809.3,5.01,000.00,019.7,019.2,000.0,028.1,021.5,20.9,0003.3,0013.56,0006.71,0006.25
2024-02-07 20:40:00,SystemResetWarning,0809.2,5.01,000.00,019.7,019.2,000.0,028.1,021.5,21.2,0003.5,0013.31,0006.77,0006.29
2024-02-07 20:41:00,SystemResetWarning,0809.2,5.00,000.00,019.8,019.2,000.0,028.1,021.4,21.2,0003.6,0012.81,0006.83,0006.32
2024-02-07 20:42:00,SystemResetWarning,0809.1,4.99,000.00,019.8,019.2,000.0,028.1,021.5,20.9,0003.5,0012.49,0006.86,0006.37
2024-02-07 20:43:00,SystemResetWarning,0809.0,4.99,000.00,019.8,019.2,000.0,028.1,021.4,20.7,0003.6,0011.71,0006.91,0006.41
2024-02-07 20:44:00,SystemResetWarning,0809.0,5.00,000.00,019.8,019.2,000.0,028.1,021.5,20.0,0003.4,0010.99,0007.01,0006.46
2024-02-07 20:45:00,SystemResetWarning,0809.0,5.01,000.00,019.8,019.3,000.0,028.1,021.5,19.1,0002.9,0010.56,0007.04,0006.48
2024-02-07 20:46:00,SystemResetWarning,0809.0,5.00,000.00,019.8,019.3,000.0,028.1,021.5,20.1,0003.2,0010.71,0007.05,0006.49
2024-02-07 20:47:00,SystemResetWarning,0809.0,5.01,000.00,019.8,019.3,000.0,028.1,021.5,21.2,0003.4,0011.00,0007.07,0006.52
2024-02-07 20:48:00,SystemResetWarning,0809.0,4.99,000.00,019.8,019.3,000.0,028.1,021.5,21.4,0003.6,0010.99,0007.06,0006.52
2024-02-07 20:49:00,SystemResetWarning,0809.0,4.99,000.00,019.8,019.3,000.0,028.1,021.5,21.2,0003.6,0010.90,0007.01,0006.51
2024-02-07 20:50:00,SystemResetWarning,0808.9,5.00,000.00,019.8,019.4,000.0,028.1,021.6,20.7,0003.8,0011.20,0007.00,0006.52
2024-02-07 20:51:00,SystemResetWarning,0809.0,5.01,000.00,019.9,019.4,000.0,028.1,021.6,20.0,0004.0,0011.75,0006.99,0006.54
2024-02-07 20:52:00,SystemResetWarning,0808.9,5.00,000.00,019.9,019.4,000.0,028.2,021.6,20.2,0003.9,0012.09,0007.04,0006.57
2024-02-07 20:53:00,SystemResetWarning,0808.9,4.99,000.00,019.9,019.5,000.0,028.2,021.7,20.1,0003.7,0012.24,0007.06,0006.60
2024-02-07 20:54:00,SystemResetWarning,0808.9,4.99,000.00,019.9,019.5,000.0,028.2,021.7,19.8,0004.0,0012.51,0007.10,0006.64
2024-02-07 20:55:00,SystemResetWarning,0808.9,5.00,000.00,019.9,019.5,000.0,028.2,021.7,18.9,0004.5,0012.57,0007.16,0006.73
2024-02-07 20:56:00,SystemResetWarning,0808.9,5.01,000.00,019.9,019.6,000.0,028.2,021.7,19.3,0004.9,0012.64,0007.28,0006.84
2024-02-07 20:57:00,SystemResetWarning,0808.9,5.01,000.00,020.0,019.6,000.0,028.2,021.8,19.5,0004.9,0012.86,0007.41,0006.94
2024-02-07 20:58:00,SystemResetWarning,0809.0,4.99,000.00,020.0,019.6,000.0,028.2,021.8,20.2,0005.0,0012.80,0007.52,0007.02
2024-02-07 20:59:00,SystemResetWarning,0809.0,4.98,000.00,020.0,019.7,000.0,028.2,021.8,21.2,0005.0,0012.86,0007.55,0007.03
